Terug naar catalogus

STARLINK-35000

ActiefCommunicatieSSO
NORAD 65278·PAYLOAD·🇺🇸 United States

Gelanceerd Aug 22, 2025 vanaf Vandenberg Space Force Base

Loading…

Volgende Passages (komende 24 uur)

TLE

VersSource: CelesTrak SupGP

Epoch: Sep 14, 2026, 21:32 UTC

1 65278C 25184F   26257.89770833  .00001819  00000+0  56484-4 0  2571
2 65278  97.2831 305.9672 0000960  96.3132  38.7891 15.33431577    17

Volg STARLINK-35000 in realtime met AllMySat

Download on the App Store